QPF
0.00 0.00 0.00 0.00 0.00 0.00 0.00 0.01 0.02 0.02 0.04 0.06 0.10 0.15 0.19 0.24 0.26 0.26 0.25 0.23 0.22 0.22 0.21 0.19 0.18 0.15 0.12 0.10 0.08 0.05 0.03 0.02 0.01 0.01 0.00 0.00 0.00 0.00 0.00 0.00 0.00 0.00 0.00
0.00 0.00 0.00 0.00 0.00 0.01 0.02 0.03 0.04 0.08 0.14 0.21 0.30 0.40 0.49 0.55 0.53 0.48 0.42 0.39 0.37 0.33 0.31 0.29 0.26 0.21 0.15 0.10 0.07 0.04 0.02 0.01 0.00 0.00 0.00 0.00 0.00 0.00 0.00 0.00 0.00 0.00 0.00
0.00 0.00 0.00 0.00 0.00 0.01 0.03 0.06 0.09 0.18 0.28 0.42 0.57 0.63 0.69 0.73 0.71 0.65 0.59 0.56 0.52 0.47 0.41 0.35 0.27 0.19 0.14 0.09 0.05 0.02 0.01 0.00 0.00 0.00 0.00 0.00 0.00 0.00 0.00 0.00 0.00 0.00 0.00
0.00 0.00 0.00 0.00 0.00 0.01 0.04 0.07 0.13 0.28 0.41 0.58 0.77 0.89 0.96 0.96 0.84 0.74 0.67 0.62 0.58 0.52 0.42 0.33 0.25 0.16 0.10 0.05 0.02 0.01 0.00 0.00 0.00 0.00 0.00 0.00 0.00 0.00 0.00 0.00 0.00 0.00 0.00
0.00 0.00 0.00 0.00 0.00 0.02 0.06 0.11 0.23 0.40 0.58 0.85 1.07 1.12 1.02 0.83 0.68 0.59 0.53 0.53 0.53 0.46 0.35 0.24 0.14 0.07 0.03 0.01 0.01 0.00 0.00 0.00 0.00 0.00 0.00 0.00 0.00 0.00 0.00 0.00 0.00 0.00 0.00
0.00 0.00 0.00 0.01 0.02 0.05 0.11 0.21 0.33 0.52 0.74 0.97 1.06 0.89 0.67 0.56 0.48 0.43 0.40 0.39 0.35 0.28 0.18 0.09 0.05 0.03 0.01 0.01 0.00 0.00 0.00 0.00 0.00 0.00 0.00 0.00 0.00 0.00 0.00 0.00 0.00 0.00 0.00
0.00 0.00 0.01 0.02 0.06 0.13 0.21 0.31 0.45 0.61 0.73 0.81 0.79 0.63 0.45 0.36 0.33 0.30 0.26 0.22 0.16 0.11 0.07 0.04 0.02 0.01 0.01 0.01 0.00 0.00 0.00 0.00 0.00 0.00 0.00 0.00 0.00 0.00 0.00 0.00 0.00 0.00 0.00
0.01 0.02 0.03 0.06 0.14 0.22 0.29 0.36 0.46 0.54 0.53 0.46 0.38 0.29 0.23 0.21 0.19 0.18 0.14 0.10 0.08 0.06 0.04 0.02 0.01 0.01 0.01 0.00 0.00 0.00 0.00 0.00 0.00 0.00 0.00 0.00 0.00 0.00 0.00 0.00 0.00 0.00 0.00
0.02 0.03 0.04 0.08 0.13 0.19 0.23 0.26 0.28 0.28 0.25 0.21 0.18 0.15 0.14 0.13 0.11 0.09 0.06 0.05 0.04 0.03 0.02 0.01 0.01 0.01 0.00 0.00 0.00 0.00 0.00 0.00 0.00 0.00 0.00 0.00 0.00 0.00 0.00 0.00 0.00 0.01 0.01
0.03 0.04 0.05 0.06 0.08 0.10 0.12 0.15 0.13 0.13 0.13 0.12 0.11 0.08 0.07 0.06 0.05 0.04 0.04 0.03 0.02 0.02 0.01 0.01 0.00 0.00 0.00 0.00 0.00 0.00 0.00 0.00 0.00 0.00 0.00 0.00 0.00 0.00 0.00 0.00 0.00 0.00 0.00
0.03 0.04 0.04 0.04 0.05 0.05 0.05 0.06 0.07 0.06 0.05 0.05 0.04 0.03 0.03 0.03 0.02 0.02 0.02 0.02 0.01 0.01 0.00 0.00 0.00 0.00 0.00 0.00 0.00 0.00 0.00 0.00 0.00 0.00 0.00 0.00 0.00 0.00 0.00 0.00 0.00 0.00 0.00
0.02 0.02 0.02 0.02 0.02 0.02 0.03 0.03 0.03 0.02 0.02 0.02 0.01 0.01 0.01 0.01 0.01 0.01 0.01 0.01 0.00 0.00 0.00 0.00 0.00 0.00 0.00 0.00 0.00 0.00 0.00 0.00 0.00 0.00 0.00 0.00 0.00 0.00 0.00 0.00 0.00 0.00 0.00
0.02 0.02 0.02 0.02 0.02 0.01 0.01 0.01 0.01 0.01 0.00 0.00 0.00 0.00 0.01 0.01 0.01 0.01 0.01 0.00 0.00 0.00 0.00 0.00 0.00 0.00 0.00 0.00 0.00 0.00 0.00 0.00 0.00 0.00 0.00 0.00 0.00 0.00 0.00 0.00 0.00 0.00 0.00
0.01 0.01 0.01 0.01 0.01 0.01 0.01 0.00 0.00 0.00 0.00 0.00 0.00 0.00 0.01 0.01 0.01 0.01 0.01 0.01 0.00 0.00 0.00 0.00 0.00 0.00 0.00 0.00 0.00 0.00 0.00 0.00 0.00 0.00 0.00 0.00 0.00 0.00 0.00 0.00 0.00 0.00 0.00
0.01 0.01 0.01 0.00 0.00 0.00 0.00 0.00 0.00 0.00 0.00 0.01 0.01 0.01 0.01 0.01 0.02 0.02 0.01 0.01 0.01 0.00 0.00 0.00 0.00 0.00 0.00 0.00 0.00 0.00 0.00 0.00 0.00 0.00 0.00 0.00 0.00 0.00 0.00 0.01 0.01 0.01 0.02
0.01 0.01 0.01 0.00 0.00 0.00 0.00 0.00 0.00 0.01 0.01 0.02 0.02 0.03 0.03 0.03 0.03 0.02 0.01 0.01 0.00 0.00 0.00 0.00 0.00 0.00 0.00 0.00 0.00 0.00 0.00 0.00 0.00 0.00 0.00 0.00 0.00 0.00 0.00 0.01 0.02 0.03 0.04
0.01 0.01 0.01 0.00 0.00 0.00 0.00 0.01 0.01 0.02 0.03 0.04 0.04 0.05 0.04 0.04 0.03 0.01 0.01 0.00 0.00 0.00 0.00 0.00 0.00 0.00 0.00 0.00 0.00 0.00 0.00 0.00 0.00 0.00 0.00 0.00 0.00 0.00 0.00 0.00 0.01 0.01 0.02
0.01 0.01 0.00 0.00 0.00 0.00 0.01 0.01 0.02 0.03 0.04 0.05 0.05 0.04 0.03 0.02 0.01 0.00 0.00 0.00 0.00 0.00 0.00 0.00 0.00 0.00 0.00 0.00 0.00 0.00 0.00 0.00 0.00 0.00 0.00 0.00 0.00 0.00 0.01 0.01 0.00 0.00 0.00
0.01 0.00 0.00 0.00 0.00 0.01 0.01 0.02 0.03 0.03 0.03 0.03 0.02 0.01 0.01 0.00 0.00 0.00 0.00 0.00 0.00 0.00 0.00 0.00 0.00 0.00 0.00 0.00 0.00 0.00 0.00 0.00 0.00 0.00 0.00 0.00 0.00 0.01 0.02 0.01 0.01 0.01 0.00
0.01 0.00 0.00 0.01 0.01 0.01 0.01 0.02 0.02 0.02 0.02 0.01 0.01 0.00 0.00 0.00 0.00 0.00 0.00 0.00 0.00 0.00 0.00 0.00 0.00 0.00 0.00 0.00 0.00 0.00 0.00 0.00 0.00 0.00 0.00 0.00 0.01 0.01 0.01 0.01 0.02 0.02 0.01
0.00 0.00 0.01 0.01 0.01 0.01 0.01 0.02 0.02 0.02 0.01 0.01 0.00 0.00 0.00 0.00 0.00 0.00 0.00 0.00 0.00 0.00 0.00 0.00 0.00 0.00 0.00 0.00 0.00 0.00 0.00 0.00 0.00 0.00 0.00 0.00 0.01 0.01 0.01 0.01 0.02 0.02 0.02
0.00 0.00 0.00 0.01 0.01 0.01 0.01 0.01 0.01 0.01 0.01 0.00 0.00 0.00 0.00 0.00 0.00 0.00 0.00 0.00 0.00 0.00 0.00 0.00 0.00 0.00 0.00 0.00 0.00 0.00 0.00 0.00 0.00 0.00 0.00 0.00 0.01 0.01 0.01 0.01 0.01 0.02 0.02
0.00 0.00 0.01 0.01 0.01 0.00 0.00 0.00 0.00 0.00 0.00 0.00 0.00 0.00 0.00 0.00 0.00 0.00 0.00 0.00 0.00 0.00 0.00 0.00 0.00 0.00 0.00 0.00 0.00 0.00 0.00 0.00 0.00 0.00 0.00 0.01 0.01 0.01 0.01 0.02 0.02 0.02 0.02
0.00 0.00 0.01 0.00 0.01 0.00 0.00 0.00 0.00 0.00 0.00 0.00 0.00 0.00 0.00 0.00 0.00 0.00 0.00 0.00 0.00 0.00 0.00 0.00 0.00 0.00 0.00 0.00 0.00 0.00 0.00 0.00 0.00 0.00 0.00 0.01 0.01 0.01 0.02 0.02 0.02 0.02 0.03
0.00 0.00 0.00 0.00 0.00 0.00 0.00 0.00 0.00 0.00 0.00 0.00 0.00 0.00 0.00 0.00 0.00 0.00 0.00 0.00 0.00 0.00 0.00 0.00 0.00 0.00 0.00 0.00 0.00 0.00 0.00 0.00 0.00 0.00 0.00 0.01 0.01 0.02 0.02 0.02 0.02 0.02 0.03
0.00 0.00 0.00 0.00 0.00 0.00 0.00 0.00 0.00 0.00 0.00 0.00 0.00 0.00 0.00 0.00 0.00 0.00 0.00 0.00 0.00 0.00 0.00 0.00 0.00 0.00 0.00 0.00 0.00 0.00 0.00 0.00 0.01 0.00 0.01 0.01 0.02 0.03 0.03 0.03 0.03 0.03 0.03
MSLP
1007.28 1007.15 1007.12 1007.20 1007.41 1007.76 1008.27 1008.92 1009.71 1010.60 1011.54 1012.46 1013.33 1014.09 1014.73 1015.23 1015.61 1015.91 1016.15 1016.39 1016.66 1016.95 1017.28 1017.65 1018.03 1018.42 1018.80 1019.16 1019.51 1019.83 1020.15 1020.44 1020.72 1020.98 1021.21 1021.39 1021.52 1021.59 1021.60 1021.55 1021.47 1021.35 1021.21
1006.93 1006.83 1006.84 1006.98 1007.24 1007.65 1008.21 1008.93 1009.79 1010.76 1011.79 1012.81 1013.75 1014.58 1015.26 1015.78 1016.16 1016.44 1016.66 1016.87 1017.09 1017.35 1017.67 1018.01 1018.38 1018.74 1019.09 1019.42 1019.72 1020.00 1020.28 1020.54 1020.81 1021.06 1021.30 1021.50 1021.65 1021.74 1021.78 1021.75 1021.68 1021.57 1021.44
1006.76 1006.71 1006.78 1006.97 1007.28 1007.73 1008.32 1009.07 1009.97 1010.97 1012.04 1013.10 1014.09 1014.96 1015.68 1016.22 1016.61 1016.88 1017.09 1017.29 1017.50 1017.75 1018.05 1018.38 1018.73 1019.07 1019.39 1019.68 1019.94 1020.18 1020.41 1020.65 1020.89 1021.13 1021.36 1021.56 1021.72 1021.83 1021.87 1021.85 1021.78 1021.67 1021.53
1006.85 1006.85 1006.98 1007.22 1007.56 1008.02 1008.61 1009.35 1010.22 1011.21 1012.26 1013.31 1014.31 1015.19 1015.92 1016.49 1016.90 1017.19 1017.42 1017.63 1017.85 1018.11 1018.41 1018.74 1019.08 1019.41 1019.70 1019.97 1020.19 1020.40 1020.60 1020.80 1021.02 1021.23 1021.45 1021.64 1021.79 1021.88 1021.91 1021.87 1021.78 1021.65 1021.49
1007.25 1007.32 1007.50 1007.77 1008.12 1008.55 1009.10 1009.76 1010.56 1011.47 1012.46 1013.46 1014.42 1015.29 1016.02 1016.60 1017.04 1017.38 1017.64 1017.89 1018.14 1018.43 1018.75 1019.09 1019.43 1019.76 1020.05 1020.29 1020.50 1020.68 1020.86 1021.03 1021.22 1021.41 1021.60 1021.75 1021.87 1021.93 1021.91 1021.84 1021.71 1021.53 1021.33
1007.97 1008.10 1008.32 1008.61 1008.93 1009.32 1009.78 1010.34 1011.02 1011.80 1012.67 1013.58 1014.48 1015.31 1016.03 1016.63 1017.11 1017.49 1017.81 1018.11 1018.41 1018.74 1019.08 1019.44 1019.80 1020.13 1020.42 1020.66 1020.86 1021.03 1021.19 1021.34 1021.50 1021.66 1021.80 1021.92 1021.98 1021.98 1021.91 1021.77 1021.58 1021.35 1021.09
1008.96 1009.16 1009.41 1009.70 1009.99 1010.30 1010.65 1011.07 1011.60 1012.24 1012.98 1013.77 1014.58 1015.35 1016.06 1016.67 1017.18 1017.62 1017.99 1018.35 1018.70 1019.06 1019.44 1019.82 1020.18 1020.51 1020.80 1021.04 1021.24 1021.41 1021.56 1021.70 1021.83 1021.95 1022.05 1022.11 1022.11 1022.03 1021.89 1021.68 1021.42 1021.12 1020.81
1010.14 1010.40 1010.69 1010.97 1011.22 1011.44 1011.68 1011.97 1012.35 1012.83 1013.42 1014.09 1014.80 1015.51 1016.19 1016.81 1017.35 1017.83 1018.26 1018.66 1019.04 1019.43 1019.83 1020.21 1020.57 1020.90 1021.19 1021.43 1021.62 1021.79 1021.93 1022.05 1022.16 1022.24 1022.29 1022.29 1022.22 1022.08 1021.86 1021.57 1021.24 1020.87 1020.50
1011.38 1011.71 1012.04 1012.32 1012.53 1012.69 1012.83 1013.00 1013.24 1013.59 1014.04 1014.59 1015.21 1015.87 1016.51 1017.12 1017.68 1018.19 1018.65 1019.07 1019.48 1019.88 1020.27 1020.64 1020.98 1021.29 1021.56 1021.79 1021.98 1022.13 1022.26 1022.37 1022.45 1022.49 1022.49 1022.43 1022.30 1022.08 1021.80 1021.44 1021.05 1020.63 1020.21
1012.59 1012.99 1013.37 1013.66 1013.86 1013.97 1014.04 1014.12 1014.26 1014.49 1014.84 1015.29 1015.83 1016.43 1017.04 1017.64 1018.20 1018.71 1019.18 1019.61 1020.02 1020.40 1020.75 1021.09 1021.40 1021.67 1021.91 1022.11 1022.28 1022.42 1022.53 1022.61 1022.66 1022.67 1022.62 1022.51 1022.32 1022.04 1021.70 1021.29 1020.85 1020.39 1019.93
1013.67 1014.15 1014.58 1014.90 1015.10 1015.20 1015.23 1015.26 1015.33 1015.50 1015.77 1016.15 1016.63 1017.18 1017.75 1018.32 1018.87 1019.38 1019.83 1020.25 1020.62 1020.97 1021.28 1021.56 1021.82 1022.04 1022.23 1022.39 1022.53 1022.64 1022.73 1022.78 1022.80 1022.76 1022.67 1022.51 1022.26 1021.94 1021.55 1021.10 1020.62 1020.13 1019.65
1014.59 1015.15 1015.63 1015.99 1016.21 1016.31 1016.35 1016.36 1016.40 1016.53 1016.76 1017.09 1017.52 1018.03 1018.56 1019.11 1019.63 1020.11 1020.54 1020.92 1021.26 1021.55 1021.81 1022.04 1022.23 1022.40 1022.54 1022.65 1022.74 1022.81 1022.86 1022.88 1022.85 1022.78 1022.64 1022.42 1022.13 1021.77 1021.34 1020.86 1020.35 1019.84 1019.34
1015.37 1015.99 1016.52 1016.91 1017.16 1017.28 1017.33 1017.35 1017.40 1017.51 1017.72 1018.03 1018.42 1018.89 1019.39 1019.89 1020.38 1020.83 1021.23 1021.58 1021.88 1022.13 1022.34 1022.51 1022.64 1022.75 1022.83 1022.89 1022.93 1022.95 1022.95 1022.91 1022.84 1022.71 1022.52 1022.26 1021.92 1021.52 1021.05 1020.54 1020.01 1019.48 1018.96
1016.05 1016.71 1017.26 1017.67 1017.94 1018.10 1018.17 1018.22 1018.28 1018.40 1018.60 1018.88 1019.25 1019.68 1020.14 1020.62 1021.07 1021.49 1021.86 1022.18 1022.44 1022.66 1022.83 1022.95 1023.03 1023.09 1023.11 1023.12 1023.10 1023.07 1023.00 1022.91 1022.78 1022.59 1022.34 1022.03 1021.64 1021.19 1020.68 1020.15 1019.59 1019.03 1018.49
1016.67 1017.34 1017.89 1018.31 1018.59 1018.77 1018.87 1018.94 1019.02 1019.15 1019.35 1019.62 1019.96 1020.36 1020.79 1021.23 1021.65 1022.04 1022.39 1022.69 1022.93 1023.12 1023.27 1023.36 1023.41 1023.42 1023.39 1023.34 1023.26 1023.16 1023.03 1022.87 1022.66 1022.41 1022.10 1021.72 1021.28 1020.78 1020.24 1019.67 1019.08 1018.49 1017.93
1017.29 1017.93 1018.46 1018.86 1019.14 1019.32 1019.44 1019.53 1019.63 1019.78 1019.98 1020.24 1020.56 1020.92 1021.32 1021.72 1022.11 1022.48 1022.82 1023.10 1023.34 1023.52 1023.65 1023.73 1023.75 1023.72 1023.65 1023.54 1023.40 1023.23 1023.02 1022.78 1022.50 1022.18 1021.79 1021.36 1020.86 1020.32 1019.74 1019.13 1018.51 1017.90 1017.30
1017.92 1018.52 1019.00 1019.37 1019.63 1019.81 1019.93 1020.04 1020.16 1020.31 1020.51 1020.76 1021.06 1021.40 1021.76 1022.14 1022.50 1022.85 1023.17 1023.45 1023.69 1023.87 1023.99 1024.05 1024.04 1023.98 1023.87 1023.70 1023.50 1023.25 1022.97 1022.65 1022.30 1021.90 1021.45 1020.95 1020.41 1019.82 1019.20 1018.56 1017.92 1017.28 1016.67
1018.57 1019.10 1019.52 1019.84 1020.08 1020.25 1020.38 1020.50 1020.63 1020.79 1020.99 1021.24 1021.52 1021.84 1022.17 1022.51 1022.86 1023.19 1023.49 1023.76 1023.99 1024.16 1024.27 1024.32 1024.29 1024.19 1024.03 1023.81 1023.54 1023.22 1022.86 1022.47 1022.04 1021.58 1021.07 1020.53 1019.94 1019.32 1018.68 1018.02 1017.36 1016.71 1016.09
1019.21 1019.67 1020.03 1020.31 1020.51 1020.67 1020.80 1020.94 1021.08 1021.26 1021.47 1021.71 1021.99 1022.28 1022.59 1022.91 1023.23 1023.53 1023.82 1024.07 1024.28 1024.43 1024.52 1024.54 1024.47 1024.33 1024.12 1023.84 1023.51 1023.13 1022.71 1022.25 1021.77 1021.25 1020.70 1020.12 1019.51 1018.87 1018.21 1017.55 1016.89 1016.24 1015.62
1019.82 1020.21 1020.51 1020.75 1020.93 1021.08 1021.22 1021.37 1021.54 1021.73 1021.95 1022.20 1022.47 1022.75 1023.04 1023.33 1023.62 1023.90 1024.15 1024.37 1024.55 1024.67 1024.73 1024.70 1024.60 1024.41 1024.15 1023.82 1023.43 1022.99 1022.52 1022.02 1021.49 1020.94 1020.36 1019.76 1019.14 1018.50 1017.84 1017.18 1016.53 1015.90 1015.29
1020.37 1020.70 1020.95 1021.16 1021.32 1021.47 1021.62 1021.79 1021.98 1022.20 1022.43 1022.69 1022.96 1023.23 1023.50 1023.77 1024.03 1024.27 1024.49 1024.67 1024.80 1024.88 1024.88 1024.81 1024.66 1024.43 1024.12 1023.74 1023.31 1022.83 1022.33 1021.79 1021.24 1020.67 1020.09 1019.49 1018.87 1018.23 1017.59 1016.94 1016.30 1015.68 1015.09
1020.84 1021.12 1021.35 1021.53 1021.68 1021.83 1021.99 1022.18 1022.39 1022.62 1022.88 1023.14 1023.41 1023.68 1023.94 1024.18 1024.41 1024.61 1024.79 1024.92 1025.00 1025.03 1024.99 1024.87 1024.67 1024.39 1024.04 1023.63 1023.18 1022.68 1022.16 1021.61 1021.06 1020.49 1019.91 1019.31 1018.71 1018.08 1017.46 1016.82 1016.20 1015.59 1015.02
1021.23 1021.49 1021.68 1021.84 1021.99 1022.14 1022.31 1022.50 1022.72 1022.97 1023.23 1023.50 1023.77 1024.03 1024.28 1024.51 1024.71 1024.88 1025.01 1025.10 1025.13 1025.11 1025.02 1024.85 1024.62 1024.31 1023.94 1023.51 1023.05 1022.55 1022.03 1021.50 1020.95 1020.40 1019.83 1019.25 1018.66 1018.05 1017.43 1016.81 1016.20 1015.60 1015.03
1021.56 1021.79 1021.96 1022.11 1022.24 1022.39 1022.55 1022.74 1022.96 1023.20 1023.46 1023.73 1024.00 1024.25 1024.49 1024.70 1024.88 1025.02 1025.12 1025.17 1025.17 1025.11 1024.98 1024.78 1024.52 1024.19 1023.82 1023.40 1022.94 1022.46 1021.96 1021.45 1020.93 1020.40 1019.86 1019.30 1018.72 1018.12 1017.51 1016.89 1016.28 1015.67 1015.10
1021.83 1022.03 1022.19 1022.32 1022.44 1022.57 1022.71 1022.88 1023.08 1023.31 1023.55 1023.81 1024.06 1024.31 1024.53 1024.73 1024.90 1025.02 1025.10 1025.13 1025.10 1025.01 1024.86 1024.65 1024.38 1024.06 1023.69 1023.29 1022.86 1022.41 1021.95 1021.48 1020.99 1020.49 1019.98 1019.44 1018.87 1018.28 1017.67 1017.05 1016.43 1015.82 1015.23
1022.06 1022.25 1022.40 1022.51 1022.60 1022.70 1022.81 1022.94 1023.11 1023.30 1023.51 1023.74 1023.98 1024.21 1024.43 1024.62 1024.77 1024.89 1024.96 1024.98 1024.94 1024.84 1024.69 1024.48 1024.22 1023.91 1023.58 1023.21 1022.82 1022.41 1021.99 1021.56 1021.12 1020.66 1020.17 1019.65 1019.10 1018.52 1017.91 1017.29 1016.66 1016.03 1015.43
Thickness
5802 5801 5799 5796 5791 5786 5781 5775 5768 5761 5753 5744 5735 5726 5716 5707 5700 5694 5688 5685 5683 5681 5679 5674 5669 5666 5661 5656 5653 5649 5645 5641 5638 5636 5631 5626 5622 5619 5616 5614 5612 5609 5607
5791 5794 5795 5792 5789 5785 5779 5772 5765 5757 5749 5742 5732 5721 5708 5699 5691 5686 5680 5675 5673 5670 5668 5664 5660 5655 5651 5647 5643 5640 5634 5630 5627 5626 5622 5616 5612 5607 5604 5601 5599 5595 5592
5785 5789 5789 5788 5786 5781 5776 5768 5760 5751 5743 5734 5722 5710 5698 5690 5681 5674 5669 5665 5663 5662 5659 5653 5650 5645 5642 5637 5632 5629 5626 5620 5615 5613 5610 5606 5603 5595 5592 5588 5584 5581 5578
5779 5782 5782 5781 5779 5776 5770 5761 5752 5743 5734 5725 5714 5705 5694 5683 5674 5667 5662 5657 5654 5652 5648 5643 5640 5636 5631 5626 5622 5618 5615 5610 5604 5599 5595 5591 5587 5583 5581 5577 5572 5567 5564
5769 5772 5774 5773 5770 5766 5759 5751 5742 5732 5722 5713 5705 5694 5685 5676 5666 5657 5653 5648 5643 5640 5638 5634 5630 5626 5621 5616 5611 5606 5602 5597 5591 5587 5581 5576 5570 5566 5564 5563 5560 5555 5550
5759 5760 5761 5760 5756 5752 5747 5739 5731 5721 5712 5704 5694 5685 5676 5666 5657 5649 5644 5639 5633 5629 5628 5624 5620 5615 5610 5605 5600 5595 5590 5584 5579 5573 5568 5563 5558 5553 5547 5545 5545 5545 5542
5745 5746 5745 5744 5740 5736 5731 5725 5719 5710 5701 5692 5683 5673 5664 5657 5650 5642 5636 5631 5626 5622 5617 5614 5609 5604 5599 5594 5588 5582 5577 5571 5565 5559 5553 5548 5542 5537 5532 5529 5529 5528 5528
5730 5729 5728 5726 5723 5719 5715 5710 5704 5696 5688 5679 5671 5663 5655 5647 5640 5632 5627 5622 5618 5612 5607 5602 5597 5592 5587 5581 5575 5569 5564 5557 5551 5546 5540 5533 5527 5521 5516 5511 5509 5512 5515
5713 5711 5709 5707 5704 5702 5698 5693 5688 5681 5674 5666 5658 5650 5643 5637 5630 5622 5617 5611 5605 5600 5595 5589 5584 5578 5573 5567 5561 5555 5548 5542 5536 5530 5524 5518 5512 5506 5499 5494 5489 5487 5495
5698 5695 5693 5690 5687 5684 5680 5675 5671 5664 5658 5652 5646 5637 5630 5624 5618 5611 5604 5598 5592 5587 5581 5575 5569 5564 5558 5552 5546 5539 5532 5526 5520 5514 5507 5502 5496 5490 5484 5478 5472 5467 5467
5682 5679 5676 5674 5671 5668 5663 5658 5653 5648 5641 5635 5629 5622 5615 5609 5603 5596 5589 5583 5578 5573 5567 5560 5554 5548 5541 5535 5529 5522 5516 5509 5502 5497 5491 5486 5480 5474 5469 5463 5458 5452 5448
5666 5663 5661 5658 5656 5652 5647 5642 5637 5631 5625 5619 5613 5606 5600 5593 5587 5580 5573 5568 5561 5555 5550 5544 5538 5531 5524 5518 5512 5505 5498 5492 5486 5481 5475 5471 5466 5460 5455 5450 5445 5440 5435
5650 5647 5644 5641 5637 5634 5630 5625 5620 5615 5609 5602 5596 5589 5582 5576 5569 5563 5556 5550 5545 5538 5532 5527 5521 5514 5507 5500 5494 5487 5482 5476 5471 5466 5462 5457 5452 5448 5443 5438 5433 5429 5424
5634 5630 5625 5622 5618 5615 5612 5608 5603 5598 5592 5586 5579 5571 5564 5558 5552 5546 5539 5533 5527 5521 5514 5508 5502 5495 5489 5483 5477 5472 5467 5462 5457 5453 5449 5444 5440 5436 5432 5428 5423 5419 5415
5619 5614 5609 5605 5602 5598 5594 5590 5585 5580 5575 5569 5561 5554 5547 5540 5534 5528 5521 5515 5509 5502 5496 5490 5484 5478 5473 5468 5463 5458 5454 5449 5445 5441 5436 5432 5429 5427 5422 5418 5415 5411 5409
5604 5598 5593 5589 5585 5581 5577 5572 5567 5562 5558 5551 5544 5537 5531 5524 5517 5510 5504 5497 5491 5485 5480 5474 5468 5463 5459 5455 5450 5446 5442 5437 5433 5429 5425 5421 5419 5415 5411 5407 5405 5404 5404
5590 5583 5577 5572 5567 5563 5559 5555 5550 5545 5540 5534 5527 5521 5514 5508 5501 5495 5487 5480 5474 5469 5464 5459 5454 5450 5446 5442 5438 5434 5429 5425 5421 5418 5415 5412 5410 5406 5404 5402 5401 5401 5401
5574 5566 5560 5554 5549 5546 5542 5538 5533 5528 5523 5517 5511 5505 5498 5491 5484 5477 5471 5464 5459 5454 5450 5445 5441 5437 5433 5429 5425 5421 5417 5414 5412 5409 5406 5404 5402 5401 5399 5399 5400 5401 5403
5557 5550 5544 5539 5534 5530 5526 5522 5516 5511 5506 5500 5494 5488 5481 5474 5468 5461 5455 5449 5444 5440 5436 5432 5427 5423 5420 5416 5413 5410 5406 5404 5403 5402 5400 5399 5398 5396 5395 5397 5400 5402 5405
5540 5534 5529 5524 5519 5514 5510 5505 5500 5494 5489 5483 5477 5471 5465 5458 5452 5446 5440 5435 5430 5426 5422 5418 5414 5410 5407 5405 5402 5400 5397 5396 5396 5396 5395 5395 5394 5394 5395 5397 5400 5403 5405
5524 5520 5515 5509 5504 5499 5495 5489 5483 5477 5472 5467 5461 5455 5448 5442 5436 5431 5425 5421 5417 5413 5408 5405 5402 5399 5396 5395 5393 5392 5391 5390 5390 5391 5392 5392 5393 5395 5397 5399 5401 5403 5405
5511 5506 5501 5495 5490 5486 5481 5474 5468 5462 5457 5452 5446 5440 5434 5429 5423 5418 5412 5408 5404 5400 5396 5393 5391 5389 5387 5386 5386 5386 5385 5385 5386 5387 5389 5391 5394 5396 5400 5402 5404 5405 5407
5498 5493 5488 5482 5477 5472 5467 5461 5455 5450 5444 5439 5432 5427 5421 5416 5411 5406 5401 5397 5392 5388 5385 5382 5380 5380 5380 5380 5380 5380 5381 5382 5383 5385 5389 5392 5396 5399 5402 5404 5406 5407 5408
5486 5481 5476 5470 5464 5460 5456 5451 5446 5440 5434 5427 5420 5415 5410 5405 5400 5395 5391 5387 5383 5380 5377 5375 5374 5373 5373 5374 5374 5375 5377 5379 5382 5385 5389 5394 5397 5400 5403 5406 5407 5408 5408
5474 5469 5464 5459 5454 5450 5446 5442 5437 5431 5423 5417 5411 5405 5400 5395 5390 5386 5382 5380 5376 5373 5371 5369 5367 5367 5368 5368 5368 5369 5373 5376 5380 5385 5390 5394 5397 5400 5403 5406 5408 5409 5409
5465 5460 5455 5451 5446 5442 5437 5433 5428 5422 5415 5408 5402 5397 5392 5387 5383 5379 5376 5374 5371 5369 5366 5364 5363 5363 5362 5364 5366 5369 5373 5378 5381 5385 5389 5392 5395 5398 5401 5404 5407 5408 5409